www.pogodaiklimat.ru

Погода и климат >> Архив погоды >> Испания >> Аликанте


ПОГОДА в Аликанте

  • Прогноз погоды в Аликанте
  • Монитор погоды в Аликанте

АРХИВ ПОГОДЫ в Аликанте

Время (UTC), дата Ветер
(напр.,м/с)
 
Видим.   Явления Облачность Т
(С)
Тd
(С)
f
(%)
Тe
(С)
Тes
(С)
Комфортность P
(гПа)
Po
(гПа)
Тmin
(С)
Tmax
(С)
R
(мм)
R24
(мм)
S
(см)
19 18.06 Ю 2 20 км н/о +22.7 +15.3 63 +27 +27 душно 1013.7 1004.2
20 18.06 Ю 3 20 км н/о +21.7 +17.7 78 +26 +26 душно 1014.2 1004.7
21 18.06 ЮЗ 2 20 км н/о +21.0 +17.2 79 +26 +26 душно 1014.9 1005.4
22 18.06 З 1 19 км н/о +20.5 +17.5 83 +25 +25 комфорт 1015.1 1005.5
23 18.06 З 1 18 км н/о +20.1 +17.5 85 +24 +24 комфорт 1014.6 1005.0
00 19.06 З 1 14 км н/о +19.7 +17.3 86 +23 +23 комфорт 1014.2 1004.6
01 19.06 ЮЗ 2 12 км н/о +19.7 +17.7 88 +23 +23 комфорт 1013.9 1004.3
02 19.06 СЗ 1 12 км н/о +18.9 +16.3 85 +21 +21 комфорт 1013.7 1004.1
03 19.06 СЗ 1 16 км н/о +18.4 +15.5 83 +20 +20 1013.3 1003.7
04 19.06 З 1 20 км н/о +17.8 +12.3 70 +19 +19 1013.0 1003.4
05 19.06 З 1 20 км н/о +17.5 +10.4 63 +19 +19 1013.1 1003.4
06 19.06 В 1 20 км н/о +18.7 +12.0 65 +20 +20 1013.2 1003.6 +17.4
07 19.06 СВ 1 20 км н/о +21.9 +13.3 58 +25 +25 комфорт 1013.5 1004.0
08 19.06 СВ 2 20 км н/о +24.7 +13.6 50 +27 +27 жарко 1013.5 1004.1
09 19.06 В 2 19 км н/о +26.3 +14.4 48 +29 +29 жарко 1013.3 1003.9
10 19.06 В 3 19 км н/о +27.8 +13.7 42 +30 +30 жарко 1013.2 1003.9
11 19.06 ЮВ 3 13 км н/о +26.8 +17.8 58 +31 +31 душно 1013.6 1004.3
12 19.06 В 3 15 км н/о +26.4 +17.2 57 +30 +30 душно 1013.6 1004.2
13 19.06 ЮВ 3 19 км н/о +27.3 +15.0 47 +30 +30 душно 1013.2 1003.9
14 19.06 ЮВ 2 19 км н/о +29.0 +14.0 40 +31 +31 жарко 1012.8 1003.5
15 19.06 ЮВ 2 20 км н/о +30.0 +13.7 37 +32 +32 жарко 1012.1 1002.9
16 19.06 ЮВ 2 20 км н/о +30.4 +10.4 29 +30 +30 жарко 1011.9 1002.7
17 19.06 ЮВ 2 20 км н/о +30.1 +4.7 20 +28 +28 жарко 1011.7 1002.4
18 19.06 ЮВ 2 20 км н/о +28.2 +12.9 39 +30 +30 жарко 1011.6 1002.3 +30.8
19 19.06 В 1 18 км н/о +26.3 +16.0 53 +30 +30 душно 1011.5 1002.2
20 19.06 ЮВ 1 14 км н/о +23.6 +18.5 73 +28 +28 душно 1011.7 1002.3
21 19.06 ЮВ 2 13 км н/о +22.6 +18.6 78 +28 +28 душно 1012.3 1002.8
22 19.06 Ю 2 10 км н/о +21.8 +19.2 85 +27 +27 душно 1012.4 1002.9
23 19.06 Ю 1 12 км н/о +21.2 +18.4 84 +25 +25 комфорт 1012.4 1002.9
00 20.06 ЮЗ 1 11 км н/о +20.9 +18.3 85 +26 +26 душно 1012.4 1002.9
01 20.06 С 1 10 км н/о +20.3 +17.7 85 +25 +25 комфорт 1012.1 1002.6
02 20.06 СЗ 1 9000 м н/о +19.8 +17.8 88 +24 +24 комфорт 1011.3 1001.8
03 20.06 З 1 20 км н/о +18.9 +12.4 66 +21 +21 комфорт 1010.6 1001.0
04 20.06 ЮВ 2 13 км н/о +19.0 +16.0 83 +21 +21 комфорт 1010.9 1001.3
05 20.06 С 2 8000 м н/о +18.7 +15.9 84 +20 +20 1011.7 1002.1
06 20.06 СВ 2 12 км 4/0
[Ac cast]
+19.7 +17.3 86 +23 +24 комфорт 1011.9 1002.3 +18.4
07 20.06 СВ 1 14 км н/о +22.6 +17.7 74 +28 +28 душно 1012.0 1002.5
08 20.06 В 2 18 км н/о +24.6 +17.6 65 +29 +29 душно 1012.0 1002.6
09 20.06 В 4 18 км н/о +25.2 +17.4 62 +29 +29 душно 1012.2 1002.8
10 20.06 В 3 17 км н/о +25.5 +17.9 63 +30 +30 душно 1012.7 1003.3
11 20.06 В 3 14 км н/о +23.5 +18.2 72 +28 +28 душно 1013.2 1003.8
12 20.06 ЮВ 4 15 км 10/10 600 м
[Sc]
+23.7 +18.1 71 +28 +28 душно 1013.1 1003.7
13 20.06 ЮВ 3 14 км н/о +23.4 +18.3 73 +29 +29 душно 1012.7 1003.3
14 20.06 ЮВ 3 14 км н/о +24.1 +18.7 72 +29 +29 душно 1012.5 1003.1
15 20.06 ЮВ 3 14 км н/о +24.0 +18.4 71 +28 +28 душно 1012.0 1002.6
16 20.06 ЮВ 2 12 км н/о +22.6 +18.4 77 +28 +28 душно 1012.1 1002.6
17 20.06 ЮВ 1 12 км н/о +22.3 +18.3 78 +27 +27 душно 1011.7 1002.2
18 20.06 ЮВ 2 13 км н/о +22.5 +18.1 76 +28 +28 душно 1011.8 1002.3 +25.5
19 20.06 ЮВ 2 11 км н/о +21.5 +18.1 81 +26 +26 душно 1011.7 1002.2
20 20.06 ЮВ 1 10 км н/о +21.1 +18.1 83 +25 +25 комфорт 1012.0 1002.5
21 20.06 Ю 1 9000 м н/о +20.9 +18.7 87 +26 +26 душно 1012.4 1002.9
22 20.06 Ю 2 10 км н/о +21.1 +18.7 86 +25 +25 комфорт 1013.0 1003.5
23 20.06 Ю 2 9000 м н/о +21.2 +18.9 87 +26 +26 душно 1013.4 1003.9
00 21.06 ЮВ 2 8000 м в посл. час морось н/о +21.1 +18.8 87 +25 +25 комфорт 1013.0 1003.5 0.0
01 21.06 ЮВ 2 8000 м н/о +21.0 +18.8 87 +26 +26 душно 1012.7 1003.2
02 21.06 ЮВ 1 8000 м н/о +20.9 +18.7 87 +27 +27 душно 1012.7 1003.2
03 21.06 В 1 9000 м н/о +20.9 +18.7 87 +26 +26 душно 1012.4 1002.9
04 21.06 ЮВ 1 9000 м н/о +20.7 +18.5 87 +26 +26 душно 1012.6 1003.1
05 21.06 ЮЗ 1 9000 м н/о +20.8 +18.4 86 +26 +26 душно 1012.9 1003.4
06 21.06 С 1 10 км 9/9 600 м
[Sc]
+20.9 +17.7 82 +26 +26 душно 1013.5 1004.0 +20.6
07 21.06 Ю 1 10 км н/о +22.4 +18.4 78 +28 +28 душно 1014.0 1004.5
08 21.06 Ю 3 13 км н/о +23.6 +18.5 73 +28 +28 душно 1014.2 1004.8
09 21.06 Ю 3 12 км {туман} 8/8 600 м
[Cu Sc]
+23.8 +18.2 71 +28 +30 душно 1014.4 1005.0
10 21.06 ЮВ 3 11 км н/о +25.0 +18.0 65 +29 +29 душно 1014.3 1004.9
11 21.06 Ю 3 17 км н/о +26.1 +18.0 61 +31 +31 очень
душно
1014.2 1004.8
12 21.06 ЮВ 3 18 км 8/3 600 м
[Cu Sc Cs]
+26.8 +17.6 57 +31 +41 душно 1013.7 1004.4
13 21.06 ЮВ 4 17 км н/о +26.0 +17.4 59 +30 +30 душно 1013.8 1004.4
14 21.06 ЮВ 4 17 км н/о +25.2 +18.2 65 +30 +30 душно 1013.9 1004.5
15 21.06 ЮВ 4 17 км н/о +24.5 +18.4 69 +29 +29 душно 1013.9 1004.5
16 21.06 ЮВ 3 16 км н/о +23.6 +18.5 73 +28 +28 душно 1013.9 1004.5
17 21.06 ЮВ 2 15 км н/о +23.4 +18.5 74 +30 +30 очень
душно
1013.7 1004.3
18 21.06 Ю 2 15 км н/о +23.4 +18.5 74 +30 +30 очень
душно
1013.7 1004.3 +27.2
19 21.06 ЮВ 2 14 км н/о +22.5 +18.5 78 +28 +28 душно 1014.4 1004.9
20 21.06 ЮВ 1 12 км н/о +21.8 +18.6 82 +27 +27 душно 1014.9 1005.4
21 21.06 СВ 1 11 км н/о +21.5 +18.7 84 +26 +26 душно 1015.7 1006.2
22 21.06 ЮЗ 1 10 км н/о +21.3 +18.7 85 +26 +26 душно 1016.2 1006.7
23 21.06 З 1 8000 м н/о +21.2 +18.8 86 +26 +26 душно 1016.0 1006.5
00 22.06 З 1 9000 м н/о +20.7 +18.5 87 +26 +26 душно 1016.1 1006.5
01 22.06 З 1 9000 м н/о +20.4 +17.8 85 +25 +25 комфорт 1015.8 1006.2
02 22.06 Ю 2 8000 м н/о +20.5 +18.3 87 +25 +25 комфорт 1015.8 1006.2
03 22.06 ЮЗ 1 8000 м н/о +20.3 +18.2 88 +25 +25 комфорт 1015.9 1006.3
04 22.06 З 1 7000 м н/о +19.8 +18.1 90 +24 +24 комфорт 1015.9 1006.3
05 22.06 З 1 9000 м н/о +18.9 +16.9 88 +21 +21 комфорт 1016.1 1006.5
06 22.06 З 1 10 км н/о +19.9 +17.7 87 +24 +24 комфорт 1016.4 1006.8 +18.9
07 22.06 С 1 12 км н/о +22.5 +17.6 74 +28 +28 душно 1016.2 1006.7
08 22.06 ЮВ 2 16 км н/о +25.0 +17.7 64 +29 +29 душно 1016.3 1006.9
09 22.06 Ю 3 19 км н/о +25.8 +16.9 58 +30 +30 душно 1016.5 1007.1
10 22.06 ЮВ 3 18 км н/о +25.6 +17.8 62 +30 +30 душно 1017.0 1007.6
11 22.06 ЮВ 3 20 км н/о +25.9 +18.3 63 +31 +31 очень
душно
1016.9 1007.5
12 22.06 В 3 19 км н/о +24.9 +18.3 67 +29 +29 душно 1016.6 1007.2
13 22.06 В 4 20 км н/о +25.7 +17.1 59 +30 +30 душно 1016.2 1006.8
14 22.06 В 3 20 км н/о +25.3 +17.0 60 +29 +29 душно 1015.7 1006.3
15 22.06 В 4 19 км н/о +25.7 +17.4 60 +30 +30 душно 1015.3 1005.9 0.0
16 22.06 ЮВ 3 19 км н/о +25.3 +17.5 62 +29 +29 душно 1014.9 1005.5
17 22.06 СВ 3 19 км н/о +25.5 +17.4 61 +30 +30 душно 1014.5 1005.1
18 22.06 В 2 19 км дымка н/о +24.2 +17.4 66 +28 +28 душно 1014.6 1005.2 +26.3
19 22.06 В 2 17 км н/о +22.5 +18.1 76 +28 +28 душно 1014.9 1005.4
20 22.06 СВ 2 17 км н/о +21.7 +18.1 80 +26 +26 душно 1014.9 1005.4
21 22.06 СВ 1 15 км н/о +21.4 +18.2 82 +26 +26 душно 1015.3 1005.8
22 22.06 С 1 16 км н/о +21.0 +17.4 80 +26 +26 душно 1015.3 1005.8
23 22.06 ЮВ 2 13 км н/о +20.6 +17.6 83 +25 +25 комфорт 1015.5 1005.9
00 23.06 СВ 1 12 км н/о +20.6 +18.2 86 +26 +26 душно 1015.4 1005.8
01 23.06 С 1 13 км н/о +19.6 +17.0 85 +23 +23 комфорт 1014.8 1005.2
02 23.06 С 1 12 км н/о +19.1 +17.2 89 +22 +22 комфорт 1014.4 1004.8
03 23.06 С 2 14 км н/о +18.2 +15.8 86 +19 +19 1014.1 1004.5
04 23.06 В 1 19 км н/о +17.7 +14.2 80 +19 +19 1014.0 1004.3
05 23.06 СЗ 1 19 км н/о +17.2 +13.3 78 +19 +19 1014.6 1004.9
06 23.06 СЗ 1 18 км дымка н/о +18.6 +14.9 79 +21 +21 комфорт 1014.5 1004.9 +17.1 0.0
07 23.06 В 2 18 км н/о +22.4 +18.4 78 +28 +28 душно 1014.7 1005.2
08 23.06 ЮВ 2 16 км н/о +24.6 +18.1 67 +29 +29 душно 1014.8 1005.4
09 23.06 В 2 19 км н/о +26.2 +17.6 59 +30 +30 душно 1014.9 1005.5
10 23.06 В 2 20 км н/о +26.6 +17.1 56 +31 +31 душно 1015.1 1005.7
11 23.06 В 3 19 км н/о +27.1 +17.3 55 +31 +31 душно 1014.8 1005.5
12 23.06 В 4 19 км н/о +26.9 +16.2 52 +30 +30 душно 1014.6 1005.2
13 23.06 В 4 20 км н/о +27.4 +14.4 45 +30 +30 жарко 1014.2 1004.9
14 23.06 В 3 20 км н/о +27.4 +14.1 44 +30 +30 жарко 1013.7 1004.4
15 23.06 В 4 20 км н/о +27.0 +15.4 49 +30 +30 душно 1013.1 1003.8
16 23.06 В 4 19 км н/о +27.1 +16.7 53 +31 +31 душно 1012.5 1003.2
17 23.06 В 4 20 км н/о +26.2 +15.9 53 +29 +29 жарко 1012.5 1003.1
18 23.06 В 4 19 км н/о +25.1 +16.0 57 +28 +28 жарко 1013.0 1003.6 +27.7
19 23.06 В 4 20 км н/о +24.2 +14.9 56 +27 +27 жарко 1013.6 1004.2
20 23.06 СВ 3 20 км н/о +23.7 +14.4 56 +26 +26 жарко 1014.1 1004.6
21 23.06 СЗ 1 20 км н/о +23.0 +14.0 57 +26 +26 жарко 1014.8 1005.3
22 23.06 С 2 20 км н/о +22.2 +13.0 56 +25 +25 комфорт 1014.6 1005.1
23 23.06 СВ 2 20 км н/о +21.6 +10.7 50 +23 +23 комфорт 1014.0 1004.5
00 24.06 С 2 20 км н/о +21.2 +9.4 47 +23 +23 комфорт 1013.3 1003.8
01 24.06 СЗ 1 20 км н/о +20.0 +9.5 51 +22 +22 комфорт 1013.4 1003.8
02 24.06 СЗ 1 18 км н/о +19.6 +9.2 51 +22 +22 комфорт 1013.0 1003.4
03 24.06 З 1 19 км н/о +19.9 +8.6 48 +22 +22 комфорт 1012.7 1003.1
04 24.06 З 1 20 км н/о +19.2 +7.9 48 +21 +21 комфорт 1012.7 1003.1
05 24.06 З 1 20 км н/о +19.0 +8.3 50 +21 +21 комфорт 1013.3 1003.7
06 24.06 СЗ 1 20 км н/о +20.0 +9.8 52 +22 +22 комфорт 1013.5 1003.9 +18.9
07 24.06 З 1 20 км н/о +24.2 +11.5 45 +26 +26 жарко 1013.5 1004.1
08 24.06 СВ 2 20 км н/о +27.0 +12.2 40 +28 +28 жарко 1013.8 1004.4
09 24.06 В 3 20 км н/о +27.8 +12.2 38 +29 +29 жарко 1013.6 1004.3
10 24.06 ЮВ 4 20 км н/о +27.5 +13.8 43 +30 +30 жарко 1013.6 1004.3
11 24.06 ЮВ 4 20 км н/о +27.5 +14.8 46 +30 +30 жарко 1013.5 1004.2
12 24.06 ЮВ 4 20 км н/о +28.0 +15.0 45 +31 +31 душно 1013.5 1004.2
13 24.06 ЮВ 4 18 км н/о +27.5 +16.8 52 +31 +31 душно 1013.3 1004.0
14 24.06 ЮВ 4 20 км н/о +27.5 +16.5 51 +31 +31 душно 1013.2 1003.9
15 24.06 ЮВ 3 20 км н/о +27.7 +16.9 52 +32 +32 очень
душно
1012.9 1003.6
16 24.06 ЮВ 2 20 км н/о +27.8 +17.6 54 +32 +32 душно 1012.5 1003.2
17 24.06 ЮВ 2 20 км н/о +27.3 +17.5 55 +31 +31 душно 1012.3 1003.0
18 24.06 ЮВ 2 19 км н/о +25.6 +18.5 65 +30 +30 душно 1012.7 1003.3 +28.3
19 24.06 Ю 3 19 км н/о +24.0 +17.7 68 +28 +28 душно 1013.1 1003.7
20 24.06 Ю 3 17 км н/о +22.9 +19.3 80 +29 +29 очень
душно
1014.1 1004.6
21 24.06 ЮЗ 3 15 км н/о +22.8 +19.4 81 +29 +29 очень
душно
1015.0 1005.5
22 24.06 ЮЗ 2 16 км н/о +22.6 +19.2 81 +29 +29 очень
душно
1015.2 1005.7
23 24.06 З 1 16 км н/о +22.1 +18.5 80 +27 +27 душно 1015.1 1005.6
00 25.06 З 2 15 км н/о +21.8 +18.4 81 +27 +27 душно 1014.8 1005.3
01 25.06 З 1 14 км н/о +21.2 +18.0 82 +25 +25 комфорт 1014.2 1004.7
02 25.06 З 1 12 км н/о +20.7 +17.7 83 +26 +26 душно 1014.3 1004.8
03 25.06 СЗ 1 18 км н/о +20.2 +16.6 80 +25 +25 комфорт 1014.4 1004.8
04 25.06 СВ 2 20 км н/о +19.4 +14.6 74 +22 +22 комфорт 1014.3 1004.7
05 25.06 С 1 18 км н/о +19.1 +15.6 80 +22 +22 комфорт 1015.2 1005.6
06 25.06 С 1 15 км н/о +20.3 +17.5 84 +25 +25 комфорт 1016.2 1006.6 +19.1
07 25.06 СВ 1 14 км н/о +22.1 +18.5 80 +27 +27 душно 1016.5 1007.0
08 25.06 Ю 2 19 км н/о +24.5 +17.5 65 +29 +29 душно 1016.3 1006.9
09 25.06 Ю 2 19 км н/о +26.4 +17.7 59 +31 +31 душно 1016.1 1006.7
10 25.06 Ю 3 18 км н/о +28.2 +18.9 57 +33 +33 очень
душно
1015.9 1006.6
11 25.06 ЮВ 4 19 км н/о +26.9 +19.5 64 +33 +33 очень
душно
1016.3 1006.9
12 25.06 ЮВ 4 19 км н/о +27.1 +19.4 63 +33 +33 очень
душно
1016.4 1007.0
13 25.06 ЮВ 4 19 км н/о +27.5 +18.2 57 +32 +32 очень
душно
1016.2 1006.9
14 25.06 В 3 17 км н/о +27.3 +19.1 61 +33 +33 очень
душно
1015.8 1006.5
15 25.06 ЮВ 4 17 км н/о +27.7 +19.2 60 +33 +33 очень
душно
1015.5 1006.2
16 25.06 В 3 16 км н/о +26.9 +18.5 60 +32 +32 очень
душно
1015.3 1005.9
17 25.06 ЮВ 2 15 км н/о +26.7 +18.8 62 +32 +32 очень
душно
1014.8 1005.4

 

Местоположение метеостанции Аликанте (Испания): широта 38.37 долгота -0.50 высота над уровнем моря 81 м.

В архиве по умолчанию представлена погода в Аликанте за последнюю неделю. Архивные данные за месяц целиком и за предыдущие месяцы, начиная с января 2011 года, Вы можете получить, выбрав интересующий диапазон дат из раскрывающегося списка и нажав кнопку "Ввод!".


*Определитесь, кто Вы:
робот инопланетянин человек

Внимание! Время в таблицах - всемирное. Для получения местного времени необходимо прибавить поправку, которая равна 1 ч.

Смотрите также архив погоды в соседних городах и на ближайших метеорологических станциях:

Погода в Аликанте аэропорту (Испания) (11 км)
Погода в Пиносо (Испания) (47 км)
Погода в Екле (Испания) (63 км)
Погода в Хативе (Испания) (70 км)
Погода в Сан-Хавьере (Испания) (71 км)
Погода в Оливе (Испания) (71 км)
Погода в Мурсие (Испания) (72 км)
Погода в Хавеа - Аюнтамиенто (Испания) (74 км)
Погода в Сьеса - Парк де Бомберос (Испания) (78 км)
Погода в Мурсия аэропорту (Испания) (79 км)

Пояснения к столбцам:

Ветер - указаны скорость ветра в м/с - средняя за 10 мин, порывы в срок и между сроками (в фигурных скобках) и направление, откуда дует ветер: С - северный, СВ - северо-восточный, В - восточный, ЮВ - юго-восточный, Ю - южный, ЮЗ - юго-западный, З - западный, СЗ - северо-западный.
Видимость - горизонтальная дальность видимости в метрах или километрах. При видимости от 1 до 10 км при отсутствии осадков обычно наблюдается дымка, при ухудшении видимости до 1 км и менее - туман. В сухую погоду видимость может ухудшаться дымом, пылью или мглою.
Явления - указаны атмосферные явления, наблюдавшиеся в срок или в последний час перед сроком; фигурными скобками обозначены явления, наблюдавшиеся между сроками (за 1-3 часа до срока); квадратными скобками обозначены град или гололедные отложения с указанием их диаметра в мм.
Облачность - указаны через наклонную черту общая и нижняя облачность в баллах и высота нижней границы облаков в метрах; квадратными скобками обозначены формы облаков: Ci - перистые, Cs - перисто-слоистые, Cc - перисто-кучевые, Ac - высококучевые, As - высокослоистые, Sc - слоисто-кучевые, Ns - слоисто-дождевые, Cu - кучевые, Cb - кучево-дождевые. Подробнее классификацию облаков см. в Атласе облаков (PDF).
T - Температура воздуха - температура, измеренная на высоте 2 м над землей.
Td - Температура точки росы - температура, при понижении до которой содержащийся в воздухе водяной пар достигнет насыщения.
f - Относительная влажность воздуха - влажноcть воздуха, измеренная на высоте 2 м над землей.
Te - Эффективная температура - температура, которую ощущает одетый по сезону человек в тени. Характеристика душности погоды. При расчете учитывается влияние влажности воздуха и скорости ветра на теплоощущения человека.
Tes - Эффективная температура на солнце - температура, которую ощущает человек, с поправкой на солнечный нагрев. Характеристика знойности погоды. Зависит от высоты солнца над горизонтом, облачности и скорости ветра. Ночью, в пасмурную погоду, а также при ветре 12 м/с и более поправка равна нулю.
P - Атмосферное давление - приведенное к уровню моря атмосферное давление.
Po - Атмосферное давление - измеренное на уровне метеостанции атмосферное давление.
Tmin - Минимальная температура - минимум температуры воздуха на высоте 2 м над землей.
Tmax - Максимальная температура - максимум температуры воздуха на высоте 2 м над землей.
R - Количество осадков - Количество выпавших осадков за период времени, мм. При наведении курсора мыши на число - период времени, за который выпало указанное количество осадков.
R24 - Количество осадков - Количество выпавших осадков за 24 часа, мм.
S - Снежный покров - Высота снежного покрова, см. При наведении курсора мыши на число - состояние снежного покрова и степень покрытия местности в баллах.